NOAA-14
1 23455U 94089A   12298.90415422  .00000142  00000-0  98043-4 0 00804
2 23455 098.8221 020.7303 0008943 311.8548 048.1856 14.13877992919125
NOAA-15
1 25338U 98030A   12298.94502967  .00000208  00000-0  10748-3 0 04533
2 25338 098.7034 284.7197 0011606 090.9741 269.2792 14.25135684751331
RESURS
1 25394U 98043A   12298.94338910  .00000095  00000-0  58790-4 0 02312
2 25394 098.3333 280.4378 0000786 177.9611 182.1572 14.24303681742875
FENGYUN1
1 25730U 99025A   12298.88793232  .00001031  00000-0  61007-3 0  7244
2 25730 098.8541 255.6923 0021233 352.7010 007.3848 14.09797677692885
OKEAN-0
1 25860U 99039A   12298.96202779  .00001078  00000-0  17012-3 0 07870
2 25860 097.9534 259.0832 0001069 101.5581 258.5746 14.74357730713690
NOAA-16
1 26536U 00055A   12298.71246249 -.00000092  00000-0 -25054-4 0 09431
2 26536 099.0794 342.7408 0011400 079.5961 280.6492 14.12795042623325
NOAA-17
1 27453U 02032A   12298.75892681  .00000106  00000-0  63421-4 0 08857
2 27453 098.3285 319.1976 0012408 133.0520 227.1692 14.24497968537203
NOAA-18
1 28654U 05018A   12298.76944302 -.00000004  00000-0  22822-4 0 03669
2 28654 099.0641 258.0463 0014603 147.4430 212.7628 14.11718315382846
NOAA-19
1 33591U 09005A   12298.73559026  .00000512  00000-0  30687-3 0 05546
2 33591 098.8758 236.9831 0014456 018.3875 341.7805 14.11407639191287
HUBBLE
1 20580U 90037B   12299.23142079  .00003436  00000-0  23728-3 0   953
2 20580 028.4704 012.2754 0003274 010.9575 349.1256 15.02951230 34304
ISS
1 25544U 98067A   12299.90998762  .00023832  00000-0  40637-3 0  5271
2 25544 051.6474 192.0129 0016608 208.9043 237.0261 15.51079814798321
CO-58
1 28895U 05043F   12299.64510482  .00001240  00000-0  26232-3 0  3110
2 28895 097.8934 160.0577 0018830 099.3717 260.9631 14.60810595372701
FALCON
1 30776U 07006E   12298.95388384  .00007912  00000-0  49736-3 0 04688
2 30776 035.4315 203.6666 0002388 039.8042 320.2875 15.08617340309859
MAST
1 31126U 07012K   12299.88519657  .00001123  00000-0  25924-3 0  5904
2 31126 097.8750 303.3570 0094648 063.5365 297.5505 14.54306444293261
CAPE1
1 31130U 07012P   12298.72049767  .00001289  00000-0  30085-3 0  6000
2 31130 097.8875 298.5885 0102531 080.9751 280.3028 14.53127363292585
COMPASS
1 32787U 08021E   12298.77716772  .00003235  00000-0  38909-3 0 04488
2 32787 097.7861 357.1777 0015169 001.4841 358.6401 14.84534236243033
AAUSAT2
1 32788U 08021F   12299.86255009  .00004226  00000-0  50187-3 0  4372
2 32788 097.7863 358.6962 0013895 000.4477 359.6723 14.84914262243226
DO-64
1 32789U 08021G   12298.82219675  .00007073  00000-0  79838-3 0 04565
2 32789 097.7997 000.2325 0014181 356.7258 003.3853 14.86776910243136
CO-66
1 32791U 08021J   12299.76546197  .00002732  00000-0  33495-3 0  4357
2 32791 097.7850 357.7707 0015120 359.3202 000.7943 14.83861170243101
RS-30
1 32953U 08025A   12299.76097043  .00000010  00000-0  00000 0 0  2641
2 32953 082.5045 213.9362 0020040 025.7032 334.5047 12.43028919200781
PHARMSAT
1 35002U 09028B   12226.86484473  .07728342  73476-5  57159-3 0   789
2 35002 040.4341 050.6671 0012079 300.9773 059.0492 16.39309245183554
METEOR-M
1 35865U 09049A   12299.75559991  .00000012  00000-0  25041-4 0  9025
2 35865 098.6383 351.5241 0003298 043.5461 316.5975 14.21872540161156
RS-38
1 35869U 09049E   12299.75697313  .00000079  00000-0  55348-4 0  8856
2 35869 098.6337 351.4982 0005421 041.5648 318.5938 14.22094669161177
JUGNU
1 37839U 11058B   12298.34604136  .00000620  00000-0  19019-3 0 02550
2 37839 019.9590 295.7508 0018994 204.5637 155.3863 14.12094638053523
SRMSAT
1 37841U 11058D   12298.36427003  .00000264  00000-0  00000-0 0 02574
2 37841 019.9686 303.0543 0012252 170.0246 190.0410 14.10172603053451
RAX-2
1 37853U 11061D   12298.94046824  .00005135  00000-0  40510-3 0 03344
2 37853 101.7039 038.2514 0243173 340.6149 018.5900 14.81163021053603
AUBIESAT
1 37854U 11061E   12299.87073008  .00006031  00000-0  46733-3 0  3228
2 37854 101.7062 040.0413 0242994 337.1178 021.9323 14.81661249 53738
HRBE
1 37855U 11061F   12299.89941486  .00005642  00000-0  43829-3 0  3180
2 37855 101.7075 039.9889 0244223 337.2152 021.8353 14.81454858 53735
RS-39
1 38051U 11062C   12299.88598756  .00020398  00000-0  77232-3 0  8283
2 38051 051.6370 256.0270 0013756 140.3683 263.1372 15.26810022 41927
E-STAR
1 38079U 12006C   12299.62917361  .00043967  00000-0  10653-2 0  5963
2 38079 069.4828 015.6097 0697809 082.0239 285.9446 14.24884213 36090
GOLIAT
1 38085U 12006J   12299.64953393  .00043361  00000-0  10432-2 0  5623
2 38085 069.4832 016.3335 0704347 082.4519 285.5947 14.23644034 36070
HORYU-2
1 38340U 12025D   12299.77878823  .00002623  00000-0  44213-3 0  2084
2 38340 098.1866 239.8910 0011802 279.2484 080.7387 14.70321274 23669
RS-40
1 38736U 12041D   12299.57642088  .00000010  00000-0  00000 0 0   898
2 38736 082.4755 301.4110 0019881 117.5622 242.7483 12.42647005 11105
PROITERES
1 38756U 12047B   12299.72731812  .00001064  00000-0  17002-3 0  1678
2 38756 098.2804 006.1931 0013542 129.1357 231.1052 14.73937216  6851
AENEAS
1 38760U 0        12298.31629831  .00010038  00000-0  90952-3 0 00473
2 38760 064.6718 276.8338 0218398 278.1463 079.4936 14.79328824005963
CSSWE-D
1 38761U 0        12298.31357253  .00006476  00000-0  59084-3 0 00427
2 38761 064.6726 276.8243 0219448 278.1604 079.4686 14.79327712005969
